GW2582 Weather Reports


time (UTC)temp
C
wind
direction
speed
KPH
gust
KPH
rain 1hr
cm
rain 24hr
cm
rain mn
cm
humidity
%
barometer
mb
20260507151541 12 248 8.0 17.7 0.00 0.03 0.00 61 1015.1
20260507150040 11 193 9.7 25.7 0.00 0.03 0.00 66 1015.2
20260507144547 10 212 9.7 24.1 0.00 0.05 0.00 70 1015.4
20260507143042 9 204 8.0 19.3 0.00 0.05 0.00 76 1015.5
20260507141541 8 204 8.0 17.7 0.00 0.05 0.00 77 1015.5
20260507140106 7 179 9.7 19.3 0.00 0.05 0.00 80 1015.7
20260507134544 7 219 9.7 20.9 0.00 0.10 0.00 80 1015.9
20260507133042 6 150 6.4 16.1 0.00 0.10 0.00 83 1016.0
20260507131554 6 242 8.0 17.7 0.00 0.10 0.00 84 1016.2
20260507130050 5 293 4.8 16.1 0.00 0.10 0.00 87 1016.3
20260507124549 4 213 4.8 11.3 0.00 0.23 0.00 88 1016.5
20260507123057 3 205 4.8 14.5 0.00 0.23 0.00 88 1016.5
20260507121546 3 162 4.8 12.9 0.00 0.23 0.00 88 1016.5
20260507120044 3 217 3.2 12.9 0.00 0.23 0.00 89 1016.4
20260507114545 3 198 3.2 17.7 0.00 0.28 0.00 89 1016.7
20260507113045 3 196 3.2 11.3 0.00 0.28 0.00 89 1016.6
20260507111548 3 209 4.8 8.0 0.00 0.28 0.00 89 1016.6
20260507110046 3 235 4.8 11.3 0.00 0.28 0.00 89 1016.6
20260507104542 3 217 4.8 11.3 0.00 0.30 0.00 89 1017.0
20260507103041 3 220 4.8 12.9 0.00 0.30 0.00 89 1017.1
20260507101549 3 221 4.8 11.3 0.00 0.30 0.00 89 1017.2
20260507100045 3 232 4.8 12.9 0.00 0.30 0.00 90 1017.4
20260507094542 3 187 3.2 11.3 0.00 0.33 0.00 90 1017.6
20260507093041 3 199 3.2 9.7 0.00 0.33 0.00 89 1017.8
20260507091541 3 0 1.6 9.7 0.00 0.33 0.00 89 1017.8
20260507090042 3 218 0.0 4.8 0.00 0.33 0.00 89 1017.9
20260507084551 4 0 1.6 11.3 0.00 0.38 0.00 89 1017.9
20260507083048 4 248 1.6 9.7 0.00 0.38 0.00 89 1018.1
20260507081541 4 205 3.2 9.7 0.00 0.38 0.00 89 1018.2
20260507080055 4 207 3.2 6.4 0.00 0.38 0.00 89 1018.5
20260507074544 4 191 3.2 9.7 0.00 0.46 0.00 89 1018.7
20260507073052 4 214 1.6 8.0 0.00 0.46 0.00 89 1018.9
20260507071558 4 214 1.6 9.7 0.00 0.46 0.00 89 1019.1
20260507070043 4 227 1.6 6.4 0.00 0.46 0.00 89 1019.3
20260507064546 4 172 0.0 4.8 0.00 0.58 0.00 89 1019.3
20260507063042 4 215 0.0 3.2 0.00 0.58 0.00 89 1019.5
20260507061544 5 187 0.0 6.4 0.00 0.58 0.00 89 1019.6
20260507060044 5 169 1.6 4.8 0.00 0.58 0.00 89 1019.8
20260507054549 5 186 1.6 8.0 0.00 0.64 0.00 89 1019.9
20260507053046 5 226 0.0 8.0 0.00 0.64 0.00 89 1020.1
20260507051541 5 0 0.0 4.8 0.00 0.64 0.00 89 1020.0
20260507050048 5 0 0.0 3.2 0.00 0.64 0.00 88 1019.9
20260507044542 6 205 0.0 1.6 0.00 0.64 0.64 87 1020.0
20260507043041 6 0 0.0 4.8 0.00 0.64 0.64 87 1020.1
20260507041541 6 0 0.0 1.6 0.00 0.64 0.64 85 1020.0
20260507040051 7 0 0.0 3.2 0.00 0.64 0.64 84 1020.0
20260507034554 7 0 0.0 4.8 0.00 0.64 0.64 83 1020.0
20260507033045 7 231 0.0 3.2 0.00 0.64 0.64 82 1019.9
20260507031541 8 0 0.0 3.2 0.00 0.64 0.64 81 1019.9
20260507030041 8 0 0.0 4.8 0.00 0.64 0.64 80 1019.8
20260507024540 8 221 0.0 3.2 0.00 0.64 0.64 78 1019.5
20260507023040 8 0 0.0 3.2 0.00 0.64 0.64 77 1019.4
20260507021546 9 216 0.0 3.2 0.00 0.64 0.64 76 1019.2
20260507020047 9 0 0.0 3.2 0.00 0.64 0.64 75 1019.4
20260507014549 10 0 0.0 3.2 0.00 0.66 0.64 74 1019.1
20260507013041 10 259 0.0 3.2 0.00 0.66 0.64 72 1018.9
20260507011556 10 264 0.0 3.2 0.00 0.66 0.64 69 1018.8
20260507010044 10 0 0.0 3.2 0.00 0.66 0.64 70 1019.1
20260507004543 11 0 0.0 3.2 0.00 0.79 0.64 68 1018.9
20260507003041 11 0 0.0 4.8 0.00 0.79 0.64 68 1018.8
20260507001549 11 195 0.0 3.2 0.00 0.79 0.64 66 1018.8
20260507000051 11 147 0.0 6.4 0.00 0.79 0.64 66 1018.8
20260506234545 11 44 0.0 6.4 0.00 0.79 0.64 67 1018.9
20260506233043 11 214 1.6 8.0 0.00 0.79 0.64 65 1019.0
20260506231541 11 0 0.0 4.8 0.00 0.79 0.64 65 1018.9
20260506230048 12 212 1.6 6.4 0.00 0.79 0.64 61 1019.2
20260506224547 12 287 1.6 8.0 0.00 0.79 0.64 56 1019.0
20260506223042 13 266 1.6 6.4 0.00 0.79 0.64 56 1019.1
20260506221545 13 186 3.2 9.7 0.00 0.79 0.64 59 1018.9
20260506220057 13 195 1.6 6.4 0.00 0.79 0.64 61 1018.9
20260506214545 12 290 0.0 6.4 0.00 0.79 0.64 63 1019.1
20260506213042 12 338 1.6 9.7 0.00 0.79 0.64 58 1019.3
20260506211541 11 205 3.2 8.0 0.00 0.79 0.64 66 1019.3
20260506210038 12 202 3.2 9.7 0.00 0.79 0.64 66 1019.5
20260506204544 12 304 3.2 9.7 0.00 0.79 0.64 69 1019.7
20260506203121 11 216 3.2 8.0 0.00 0.79 0.64 70 1019.9
20260506201541 11 0 0.0 3.2 0.00 0.79 0.64 73 1020.0
20260506200047 10 224 1.6 6.4 0.00 0.79 0.64 78 1020.0
20260506194545 10 148 1.6 8.0 0.00 0.79 0.64 83 1020.2
20260506193045 10 150 3.2 8.0 0.00 0.79 0.64 87 1020.2
20260506191544 9 229 0.0 8.0 0.00 0.79 0.64 93 1020.4
20260506190048 8 238 0.0 4.8 0.00 0.79 0.64 94 1020.4
20260506184554 8 214 1.6 6.4 0.00 0.79 0.64 95 1020.6
20260506183044 7 0 1.6 6.4 0.00 0.79 0.64 95 1020.7
20260506181541 7 81 0.0 3.2 0.00 0.79 0.64 94 1020.7
20260506180042 7 53 0.0 1.6 0.00 0.79 0.64 95 1020.9
20260506174543 7 0 0.0 3.2 0.00 0.79 0.64 95 1020.7
20260506173053 7 144 0.0 4.8 0.00 0.79 0.64 96 1020.9
20260506171544 6 0 0.0 3.2 0.00 0.79 0.64 95 1020.7
20260506170043 6 91 0.0 6.4 0.00 0.79 0.64 96 1020.9
20260506164547 6 0 0.0 1.6 0.00 0.79 0.64 96 1020.9
20260506163056 6 39 0.0 4.8 0.00 0.79 0.64 96 1020.8
20260506161544 6 34 1.6 6.4 0.00 0.79 0.64 96 1020.8
20260506160045 6 37 0.0 4.8 0.03 0.79 0.64 96 1020.8
20260506154552 6 43 0.0 3.2 0.03 0.79 0.64 96 1020.8
20260506153040 6 0 0.0 1.6 0.05 0.79 0.64 96 1020.7